| time (UTC) | temp F | wind direction | speed MPH | gust MPH | rain 1hr in | rain 24hr in | rain mn in | humidity % | barometer mb |
| 20260505123538 | 53 | 0 | 0.0 | 2.0 | 0.00 | 0.85 | 0.01 | 97 | 1012.9 |
| 20260505122638 | 53 | 0 | 0.0 | 2.0 | 0.00 | 0.85 | 0.01 | 97 | 1012.8 |
| 20260505121737 | 53 | 117 | 1.0 | 2.0 | 0.00 | 0.85 | 0.01 | 97 | 1012.8 |
| 20260505120837 | 52 | 112 | 1.0 | 3.0 | 0.00 | 0.85 | 0.01 | 97 | 1012.8 |
| 20260505115937 | 52 | 114 | 1.0 | 3.0 | 0.00 | 0.85 | 0.01 | 97 | 1012.9 |
| 20260505115038 | 52 | 116 | 1.0 | 4.0 | 0.00 | 0.85 | 0.01 | 97 | 1013.0 |
| 20260505114137 | 52 | 0 | 0.0 | 3.0 | 0.00 | 0.85 | 0.01 | 97 | 1013.1 |
| 20260505113237 | 52 | 0 | 0.0 | 2.0 | 0.00 | 0.85 | 0.01 | 97 | 1013.2 |
| 20260505110538 | 52 | 0 | 0.0 | 2.0 | 0.00 | 0.85 | 0.01 | 97 | 1013.0 |
| 20260505101137 | 53 | 0 | 0.0 | 2.0 | 0.00 | 0.85 | 0.01 | 96 | 1013.1 |
| 20260505100238 | 53 | 0 | 0.0 | 2.0 | 0.00 | 0.85 | 0.01 | 96 | 1013.0 |
| 20260505095338 | 53 | 0 | 0.0 | 2.0 | 0.00 | 0.85 | 0.01 | 96 | 1013.0 |
| 20260505094437 | 53 | 0 | 0.0 | 2.0 | 0.00 | 0.85 | 0.01 | 97 | 1013.1 |
| 20260505093538 | 53 | 105 | 0.0 | 3.0 | 0.00 | 0.85 | 0.01 | 97 | 1013.3 |
| 20260505092638 | 53 | 0 | 0.0 | 3.0 | 0.00 | 0.85 | 0.01 | 97 | 1013.3 |
| 20260505090838 | 53 | 0 | 0.0 | 1.0 | 0.00 | 0.85 | 0.01 | 97 | 1013.5 |
| 20260505085938 | 53 | 0 | 0.0 | 2.0 | 0.00 | 0.85 | 0.01 | 97 | 1013.6 |
| 20260505085037 | 53 | 0 | 0.0 | 2.0 | 0.00 | 0.85 | 0.01 | 97 | 1013.8 |
| 20260505084137 | 53 | 0 | 0.0 | 2.0 | 0.00 | 0.85 | 0.01 | 97 | 1013.9 |
| 20260505081438 | 54 | 0 | 0.0 | 2.0 | 0.00 | 0.85 | 0.01 | 97 | 1013.8 |
| 20260505080537 | 53 | 0 | 0.0 | 1.0 | 0.00 | 0.85 | 0.01 | 96 | 1013.7 |
| 20260505075638 | 54 | 0 | 0.0 | 1.0 | 0.01 | 0.85 | 0.01 | 97 | 1013.7 |
| 20260505074738 | 54 | 0 | 0.0 | 0.0 | 0.01 | 0.85 | 0.01 | 97 | 1013.8 |
| 20260505073838 | 53 | 0 | 0.0 | 1.0 | 0.02 | 0.85 | 0.01 | 96 | 1013.9 |
| 20260505072938 | 53 | 0 | 0.0 | 1.0 | 0.02 | 0.85 | 0.01 | 96 | 1014.0 |
| 20260505072038 | 53 | 0 | 0.0 | 0.0 | 0.03 | 0.85 | 0.01 | 96 | 1014.2 |
| 20260505071139 | 53 | 0 | 0.0 | 1.0 | 0.04 | 0.85 | 0.01 | 96 | 1014.0 |
| 20260505070238 | 53 | 0 | 0.0 | 0.0 | 0.04 | 0.84 | 0.00 | 96 | 1013.9 |
| 20260505064437 | 54 | 0 | 0.0 | 0.0 | 0.08 | 0.84 | 0.84 | 96 | 1014.0 |
| 20260505062638 | 54 | 0 | 0.0 | 1.0 | 0.11 | 0.83 | 0.83 | 96 | 1014.0 |
| 20260505061737 | 54 | 0 | 0.0 | 1.0 | 0.11 | 0.82 | 0.82 | 96 | 1014.0 |
| 20260505060838 | 54 | 0 | 0.0 | 0.0 | 0.10 | 0.81 | 0.81 | 96 | 1013.8 |
| 20260505055938 | 54 | 0 | 0.0 | 1.0 | 0.08 | 0.79 | 0.79 | 96 | 1013.7 |
| 20260505054138 | 54 | 0 | 0.0 | 0.0 | 0.04 | 0.75 | 0.75 | 96 | 1014.0 |
| 20260505053238 | 54 | 0 | 0.0 | 0.0 | 0.03 | 0.73 | 0.74 | 96 | 1014.0 |
| 20260505052338 | 54 | 0 | 0.0 | 1.0 | 0.05 | 0.72 | 0.72 | 96 | 1013.9 |
| 20260505050538 | 54 | 0 | 0.0 | 1.0 | 0.12 | 0.71 | 0.71 | 96 | 1014.1 |
| 20260505041137 | 54 | 0 | 0.0 | 1.0 | 0.21 | 0.62 | 0.62 | 96 | 1014.0 |
| 20260505040238 | 54 | 0 | 0.0 | 2.0 | 0.19 | 0.57 | 0.57 | 96 | 1014.3 |
| 20260505035337 | 54 | 0 | 0.0 | 0.0 | 0.16 | 0.53 | 0.53 | 96 | 1014.2 |
| 20260505033537 | 54 | 0 | 0.0 | 0.0 | 0.14 | 0.48 | 0.48 | 96 | 1014.0 |
| 20260505031738 | 54 | 0 | 0.0 | 2.0 | 0.09 | 0.42 | 0.42 | 96 | 1014.1 |
| 20260505025938 | 54 | 0 | 0.0 | 1.0 | 0.08 | 0.38 | 0.38 | 96 | 1014.3 |
| 20260505024138 | 54 | 0 | 0.0 | 1.0 | 0.09 | 0.35 | 0.35 | 95 | 1013.9 |
| 20260505023238 | 54 | 0 | 0.0 | 1.0 | 0.09 | 0.34 | 0.34 | 95 | 1013.5 |
| 20260505022338 | 54 | 0 | 0.0 | 2.0 | 0.09 | 0.33 | 0.33 | 95 | 1013.2 |
| 20260505020538 | 54 | 0 | 0.0 | 1.0 | 0.09 | 0.31 | 0.32 | 95 | 1013.5 |
| 20260505015639 | 54 | 0 | 0.0 | 2.0 | 0.07 | 0.29 | 0.29 | 95 | 1013.5 |
| 20260505014737 | 54 | 0 | 0.0 | 2.0 | 0.06 | 0.27 | 0.27 | 95 | 1013.6 |
| 20260505013838 | 54 | 0 | 0.0 | 1.0 | 0.04 | 0.25 | 0.26 | 95 | 1013.6 |
| 20260505012937 | 54 | 0 | 0.0 | 2.0 | 0.04 | 0.24 | 0.25 | 95 | 1013.4 |
| 20260505011138 | 54 | 0 | 0.0 | 2.0 | 0.03 | 0.22 | 0.22 | 95 | 1013.5 |
| 20260505004438 | 55 | 0 | 0.0 | 2.0 | 0.06 | 0.21 | 0.21 | 95 | 1014.1 |
| 20260505003538 | 55 | 0 | 0.0 | 2.0 | 0.06 | 0.20 | 0.20 | 95 | 1014.2 |
| 20260505002638 | 55 | 80 | 0.0 | 2.0 | 0.07 | 0.20 | 0.20 | 95 | 1014.2 |
| 20260505001737 | 55 | 94 | 1.0 | 7.0 | 0.08 | 0.20 | 0.20 | 95 | 1014.0 |
| 20260504235938 | 56 | 78 | 0.0 | 5.0 | 0.08 | 0.17 | 0.17 | 95 | 1014.1 |
| 20260504235037 | 56 | 0 | 0.0 | 2.0 | 0.08 | 0.15 | 0.15 | 95 | 1014.0 |
| 20260504233238 | 56 | 0 | 0.0 | 2.0 | 0.08 | 0.14 | 0.14 | 94 | 1014.0 |
| 20260504232338 | 56 | 88 | 0.0 | 3.0 | 0.08 | 0.13 | 0.13 | 94 | 1014.1 |
| 20260504231438 | 56 | 92 | 1.0 | 4.0 | 0.07 | 0.12 | 0.12 | 94 | 1014.2 |
| 20260504230538 | 56 | 0 | 0.0 | 4.0 | 0.06 | 0.10 | 0.10 | 93 | 1014.0 |
| 20260504225638 | 56 | 78 | 0.0 | 1.0 | 0.05 | 0.08 | 0.08 | 93 | 1014.2 |
| 20260504224739 | 56 | 91 | 1.0 | 6.0 | 0.04 | 0.07 | 0.07 | 93 | 1014.3 |
| 20260504223838 | 56 | 95 | 1.0 | 6.0 | 0.05 | 0.07 | 0.07 | 92 | 1014.2 |
| 20260504222938 | 56 | 97 | 1.0 | 3.0 | 0.04 | 0.06 | 0.06 | 91 | 1014.4 |
| 20260504222038 | 57 | 104 | 1.0 | 5.0 | 0.03 | 0.05 | 0.05 | 91 | 1014.5 |
| 20260504221138 | 57 | 81 | 0.0 | 3.0 | 0.02 | 0.04 | 0.04 | 89 | 1014.4 |
| 20260504214438 | 59 | 94 | 1.0 | 3.0 | 0.00 | 0.02 | 0.02 | 84 | 1014.4 |
| 20260504213538 | 60 | 98 | 0.0 | 3.0 | 0.00 | 0.02 | 0.02 | 82 | 1014.6 |
| 20260504212638 | 60 | 0 | 0.0 | 2.0 | 0.00 | 0.02 | 0.02 | 81 | 1014.3 |
| 20260504211738 | 60 | 0 | 0.0 | 2.0 | 0.00 | 0.02 | 0.02 | 80 | 1014.4 |
| 20260504210838 | 60 | 140 | 0.0 | 2.0 | 0.00 | 0.02 | 0.02 | 80 | 1014.5 |
| 20260504205938 | 60 | 131 | 1.0 | 2.0 | 0.00 | 0.02 | 0.02 | 80 | 1014.5 |
| 20260504205038 | 60 | 110 | 1.0 | 4.0 | 0.01 | 0.02 | 0.02 | 82 | 1014.3 |
| 20260504204138 | 60 | 112 | 1.0 | 4.0 | 0.01 | 0.02 | 0.02 | 81 | 1014.5 |
| 20260504203238 | 60 | 117 | 1.0 | 3.0 | 0.01 | 0.02 | 0.02 | 82 | 1014.3 |
| 20260504201438 | 59 | 0 | 0.0 | 2.0 | 0.01 | 0.02 | 0.02 | 82 | 1014.2 |
| 20260504200538 | 59 | 0 | 0.0 | 2.0 | 0.01 | 0.02 | 0.02 | 82 | 1014.3 |
| 20260504195638 | 59 | 127 | 0.0 | 2.0 | 0.01 | 0.02 | 0.02 | 82 | 1014.5 |
| 20260504194738 | 59 | 123 | 1.0 | 3.0 | 0.00 | 0.01 | 0.01 | 82 | 1014.7 |
| 20260504193838 | 60 | 0 | 0.0 | 1.0 | 0.00 | 0.01 | 0.01 | 80 | 1014.8 |
| 20260504192038 | 59 | 96 | 1.0 | 3.0 | 0.00 | 0.01 | 0.01 | 83 | 1014.6 |
| 20260504191138 | 59 | 123 | 1.0 | 3.0 | 0.00 | 0.01 | 0.01 | 84 | 1014.6 |
| 20260504190238 | 58 | 99 | 1.0 | 3.0 | 0.01 | 0.01 | 0.01 | 84 | 1014.6 |
| 20260504185338 | 58 | 126 | 1.0 | 4.0 | 0.01 | 0.01 | 0.01 | 85 | 1014.8 |
| 20260504184438 | 58 | 111 | 1.0 | 5.0 | 0.01 | 0.01 | 0.01 | 85 | 1014.8 |
| 20260504183538 | 58 | 108 | 1.0 | 5.0 | 0.01 | 0.01 | 0.01 | 85 | 1014.8 |
| 20260504182638 | 57 | 124 | 1.0 | 3.0 | 0.01 | 0.01 | 0.01 | 85 | 1014.8 |
| 20260504181738 | 57 | 102 | 1.0 | 5.0 | 0.01 | 0.01 | 0.01 | 85 | 1014.9 |
| 20260504175938 | 57 | 109 | 1.0 | 5.0 | 0.00 | 0.00 | 0.00 | 82 | 1014.7 |
| 20260504175038 | 58 | 111 | 1.0 | 4.0 | 0.00 | 0.00 | 0.00 | 81 | 1014.5 |
| 20260504173238 | 58 | 114 | 1.0 | 4.0 | 0.00 | 0.00 | 0.00 | 81 | 1014.5 |
| 20260504172338 | 58 | 115 | 1.0 | 4.0 | 0.00 | 0.00 | 0.00 | 79 | 1014.4 |
| 20260504171438 | 58 | 117 | 1.0 | 5.0 | 0.00 | 0.00 | 0.00 | 78 | 1014.3 |
| 20260504170538 | 58 | 128 | 1.0 | 3.0 | 0.00 | 0.00 | 0.00 | 79 | 1014.3 |
| 20260504160238 | 57 | 99 | 3.0 | 10.0 | 0.00 | 0.00 | 0.00 | 81 | 1014.1 |
| 20260504150838 | 57 | 124 | 2.0 | 4.0 | 0.00 | 0.00 | 0.00 | 82 | 1013.6 |
| 20260504140538 | 55 | 95 | 1.0 | 6.0 | 0.00 | 0.00 | 0.00 | 85 | 1013.7 |
| 20260504130238 | 54 | 103 | 1.0 | 4.0 | 0.00 | 0.00 | 0.00 | 85 | 1013.2 |